This is the latest recevied weather packets stored in our database for station/object CALDNA-WX. If no packets are shown the sender has not sent any weather packets the latest 10 day(s).
| Time | Temp. | Humidity | Pressure | Rain* | Wind** | Luminosity | Snow |
|---|---|---|---|---|---|---|---|
| 1778222724 | 3.89° C | 57% | 983.5 hPa | 0 mm | - | - | - |
| 1778221839 | 4.44° C | 67% | 984 hPa | 0 mm | - | - | - |
| 1778220924 | 4.44° C | 67% | 984 hPa | 0 mm | - | - | - |
| 1778220058 | 5° C | 67% | 984 hPa | 0 mm | - | - | - |
| 1778219123 | 5° C | 61% | 984.7 hPa | 0 mm | - | - | - |
| 1778218244 | 5° C | 68% | 984.3 hPa | 0 mm | - | - | - |
| 1778217323 | 5° C | 68% | 984.3 hPa | 0 mm | - | - | - |
| 1778216452 | 5° C | 68% | 984.3 hPa | 0 mm | - | - | - |
| 1778215523 | 5° C | 63% | 984.7 hPa | 0 mm | - | - | - |
| 1778214638 | 5° C | 58% | 984.1 hPa | 0 mm | - | - | - |
| 1778213722 | 5.56° C | 58% | 984.1 hPa | 0 mm | - | - | - |
| 1778212856 | 6.11° C | 58% | 984.1 hPa | 0 mm | - | - | - |
| 1778211922 | 6.11° C | 51% | 984.1 hPa | 0 mm | - | - | - |
| 1778211038 | 6.11° C | 61% | 984.4 hPa | 0 mm | - | - | - |
| 1778210122 | 6.11° C | 61% | 984.4 hPa | 0 mm | - | - | - |
| 1778209247 | 6.67° C | 61% | 984.4 hPa | 0 mm | - | - | - |
| 1778208322 | 6.67° C | 48% | 984 hPa | 0 mm | - | - | - |
| 1778207441 | 7.22° C | 56% | 984.3 hPa | 0 mm | - | - | - |
| 1778206521 | 7.22° C | 56% | 984.2 hPa | 0 mm | - | - | - |
| 1778205648 | 7.22° C | 56% | 984.2 hPa | 0 mm | - | - | - |
| 1778204723 | 7.78° C | 49% | 984 hPa | 0 mm | - | - | - |
| 1778203839 | 7.78° C | 49% | 984 hPa | 0 mm | - | - | - |
| 1778202922 | 9.44° C | 49% | 984.1 hPa | 0 mm | - | - | - |
| 1778202045 | 10° C | 49% | 984.1 hPa | 0 mm | - | - | - |
| 1778201122 | 10° C | 42% | 984.7 hPa | 0 mm | - | - | - |
* Rain latest hour (hover to see other rain measurements)
** Current wind speed in m/s (hover to see current wind gust speed)